Location: Tel Aviv
(32.0670°N, 34.7670°E)
Time: 07:17:57
(UTC+02:00)

Tiros 1 despin weight - All Passes

Search period start: 29 November 2023 00:00
Search period end: 09 December 2023 00:00
Orbit: 583 x 628 km, 48.2° (Epoch: 28 November)

Date Brightness Start Highest point End Pass type
(mag) Time Alt. Az. Time Alt. Az. Time Alt. Az.
29 Nov - 00:50:37 10° NNW 00:53:36 17° NNE 00:56:35 10° ENE night (unlit)
29 Nov - 02:30:57 10° NW 02:35:24 77° NE 02:39:53 10° SE night (unlit)
29 Nov - 04:13:55 10° W 04:16:14 14° SW 04:18:33 10° SSW visible
29 Nov - 18:13:16 10° SSW 18:17:16 37° SE 18:21:17 10° ENE visible
29 Nov - 19:54:37 10° W 19:58:32 32° NNW 20:02:27 10° NNE visible
29 Nov - 21:39:30 10° NNW 21:40:51 11° NNW 21:42:13 10° N night (unlit)
29 Nov - 23:23:05 10° N 23:23:47 10° N 23:24:29 10° NNE night (unlit)
30 Nov - 01:02:33 10° NNW 01:06:16 26° NNE 01:10:01 10° E night (unlit)
30 Nov - 02:43:23 10° WNW 02:47:42 53° SW 02:52:04 10° SSE night (unlit)
30 Nov - 18:25:10 10° SW 18:29:31 78° SE 18:33:51 10° NE visible
30 Nov - 20:07:53 10° WNW 20:11:08 20° NNW 20:14:24 10° NNE visible
30 Nov - 23:34:35 10° NNW 23:36:40 13° NNE 23:38:45 10° NE night (unlit)
01 Dec - 01:14:34 10° NW 01:18:48 44° NE 01:23:03 10° ESE night (unlit)
01 Dec - 02:56:12 10° WNW 02:59:53 26° SW 03:03:36 10° S night (unlit)
01 Dec - 16:57:44 10° S 17:00:54 20° SE 17:04:04 10° E visible
01 Dec - 18:37:36 10° WSW 18:41:51 53° NW 18:46:07 10° NE visible
01 Dec - 20:21:30 10° NW 20:23:51 14° NNW 20:26:14 10° NNE visible
01 Dec - 23:46:22 10° NNW 23:49:26 18° NNE 23:52:30 10° ENE night (unlit)
02 Dec - 01:26:45 10° NW 01:31:11 83° NE 01:35:38 10° SE night (unlit)
02 Dec - 03:10:06 10° WSW 03:11:58 12° SW 03:13:50 10° SSW night (unlit)
02 Dec - 17:08:56 10° SSW 17:13:01 41° SE 17:17:06 10° ENE visible
02 Dec - 18:50:29 10° W 18:54:20 30° NNW 18:58:10 10° NNE visible
02 Dec - 20:35:33 10° NNW 20:36:41 11° NNW 20:37:49 10° N night (unlit)
02 Dec - 22:18:45 10° N 22:19:38 10° N 22:20:29 10° NNE night (unlit)
02 Dec - 23:58:16 10° NNW 00:02:03 27° NNE 00:05:51 10° E night (unlit)
03 Dec - 01:39:11 10° WNW 01:43:25 48° SW 01:47:43 10° SSE night (unlit)
03 Dec - 15:44:28 10° SE 15:44:33 10° SE 15:44:38 10° SE daylight
03 Dec - 17:20:52 10° SW 17:25:14 86° SE 17:29:36 10° NE visible
03 Dec - 19:03:45 10° WNW 19:06:55 19° NNW 19:10:05 10° NNE visible
03 Dec - 22:30:16 10° NNW 22:32:27 13° NNE 22:34:39 10° NE night (unlit)
04 Dec - 00:10:17 10° NW 00:14:32 47° NE 00:18:48 10° ESE night (unlit)
04 Dec - 01:52:03 10° WNW 01:55:34 23° SW 01:59:07 10° S night (unlit)
04 Dec - 15:53:12 10° S 15:56:34 22° SE 15:59:56 10° E daylight
04 Dec - 17:33:20 10° WSW 17:37:34 49° NW 17:41:48 10° NE visible
04 Dec - 19:17:23 10° NW 19:19:37 14° NNW 19:21:51 10° NNE visible
04 Dec - 22:42:02 10° NNW 22:45:10 19° NNE 22:48:19 10° ENE night (unlit)
05 Dec - 00:22:28 10° NW 00:26:52 90° S 00:31:18 10° SE night (unlit)
05 Dec - 02:06:21 10° WSW 02:07:36 11° SW 02:08:51 10° SW night (unlit)
05 Dec - 16:04:30 10° SSW 16:08:41 45° SE 16:12:50 10° ENE daylight
05 Dec - 17:46:14 10° W 17:50:01 28° NNW 17:53:48 10° NNE visible
05 Dec - 19:31:31 10° NNW 19:32:25 11° N 19:33:20 10° N visible
05 Dec - 21:14:19 10° N 21:15:21 11° N 21:16:23 10° NNE night (unlit)
05 Dec - 22:53:54 10° NNW 22:57:44 29° NNE 23:01:35 10° E night (unlit)
06 Dec - 00:34:54 10° WNW 00:39:04 44° SW 00:43:16 10° SSE night (unlit)
06 Dec - 14:38:45 10° SSE 14:40:09 11° SE 14:41:31 10° ESE daylight
06 Dec - 16:16:29 10° SW 16:20:53 87° NW 16:25:15 10° NE daylight
06 Dec - 17:59:31 10° WNW 18:02:35 18° NNW 18:05:40 10° NNE visible
06 Dec - 21:25:50 10° NNW 21:28:08 14° NNE 21:30:26 10° NE night (unlit)
06 Dec - 23:05:54 10° NW 23:10:10 51° NE 23:14:27 10° ESE night (unlit)
07 Dec - 00:47:49 10° W 00:51:09 21° SW 00:54:31 10° S night (unlit)
07 Dec - 14:48:36 10° S 14:52:09 24° SE 14:55:40 10° ENE daylight
07 Dec - 16:28:59 10° WSW 16:33:11 45° NW 16:37:23 10° NE daylight
07 Dec - 18:13:11 10° NW 18:15:17 13° NNW 18:17:22 10° NNE visible
07 Dec - 21:37:35 10° NNW 21:40:48 20° NNE 21:44:02 10° ENE night (unlit)
07 Dec - 23:18:04 10° NW 23:22:27 83° SW 23:26:51 10° SE night (unlit)
08 Dec - 14:59:58 10° SSW 15:04:14 49° SE 15:08:27 10° ENE daylight
08 Dec - 16:41:54 10° W 16:45:37 27° NNW 16:49:20 10° NNE daylight
08 Dec - 18:27:23 10° NNW 18:28:03 10° N 18:28:44 10° N visible
08 Dec - 20:09:46 10° N 20:10:59 11° NNE 20:12:11 10° NNE night (unlit)
08 Dec - 21:49:26 10° NNW 21:53:20 31° NNE 21:57:13 10° E night (unlit)
08 Dec - 23:30:31 10° WNW 23:34:36 40° SW 23:38:43 10° SSE night (unlit)
